Location: Newark
(3.8000°S, 102.2500°E)
Time: 20:08:13
(UTC+00:00)

X-37B - Visible Passes

Search period start: 18 September 2020 00:00
Search period end: 28 September 2020 00:00
Orbit: 386 x 387 km, 45.0° (Epoch: 18 September)

Date Brightness Start Highest point End Pass type
(mag) Time Alt. Az. Time Alt. Az. Time Alt. Az.
23 Sep 2.7 12:01:57 10° S 12:03:10 14° SSE 12:03:10 14° SSE visible
24 Sep 2.4 12:38:42 10° SW 12:40:32 30° WSW 12:40:32 30° WSW visible
25 Sep 1.1 11:40:17 10° SSW 11:43:19 40° SE 11:45:38 15° ENE visible
26 Sep 3.1 12:18:50 10° W 12:21:13 19° NW 12:23:10 12° N visible
